| time (UTC) | temp C | wind direction | speed KPH | gust KPH | rain 1hr cm | rain 24hr cm | rain mn cm | humidity % | barometer mb |
| 20260508011527 | 12 | 88 | 3.2 | 8.0 | 0.00 | 0.30 | 0.00 | 80 | 1016.0 |
| 20260508011035 | 15 | 100 | 3.2 | 4.8 | 0.00 | 0.00 | 0.00 | 66 | 1013.0 |
| 20260508010524 | 12 | 103 | 6.4 | 11.3 | 0.00 | 0.30 | 0.00 | 82 | 1016.0 |
| 20260508010031 | 15 | 135 | 3.2 | 6.4 | 0.00 | 0.00 | 0.00 | 66 | 1013.0 |
| 20260508005519 | 12 | 107 | 8.0 | 14.5 | 0.00 | 0.30 | 0.00 | 82 | 1016.3 |
| 20260508005028 | 15 | 151 | 4.8 | 8.0 | 0.00 | 0.00 | 0.00 | 67 | 1013.1 |
| 20260508004535 | 12 | 108 | 6.4 | 12.9 | 0.00 | 0.33 | 0.00 | 82 | 1016.3 |
| 20260508004024 | 14 | 164 | 6.4 | 8.0 | 0.00 | 0.00 | 0.00 | 69 | 1013.1 |
| 20260508003530 | 12 | 106 | 6.4 | 12.9 | 0.00 | 0.33 | 0.00 | 81 | 1016.5 |
| 20260508003040 | 15 | 130 | 4.8 | 6.4 | 0.00 | 0.00 | 0.00 | 68 | 1013.2 |
| 20260508002526 | 12 | 107 | 6.4 | 16.1 | 0.00 | 0.36 | 0.00 | 81 | 1016.4 |
| 20260508002016 | 15 | 126 | 3.2 | 6.4 | 0.00 | 0.03 | 0.00 | 67 | 1013.4 |
| 20260508001522 | 13 | 111 | 6.4 | 11.3 | 0.00 | 0.38 | 0.00 | 78 | 1016.6 |
| 20260508001033 | 15 | 143 | 3.2 | 6.4 | 0.00 | 0.03 | 0.00 | 67 | 1013.6 |
| 20260508000519 | 12 | 117 | 6.4 | 11.3 | 0.00 | 0.38 | 0.00 | 79 | 1016.6 |
| 20260508000029 | 15 | 146 | 3.2 | 6.4 | 0.00 | 0.03 | 0.00 | 70 | 1013.7 |
| 20260507235535 | 12 | 107 | 6.4 | 14.5 | 0.00 | 0.38 | 0.00 | 79 | 1016.7 |
| 20260507235025 | 15 | 91 | 3.2 | 4.8 | 0.00 | 0.03 | 0.00 | 71 | 1013.7 |
| 20260507234531 | 12 | 108 | 8.0 | 12.9 | 0.00 | 0.38 | 0.00 | 79 | 1016.9 |
| 20260507234022 | 15 | 45 | 1.6 | 3.2 | 0.00 | 0.03 | 0.00 | 72 | 1013.8 |
| 20260507233526 | 12 | 105 | 6.4 | 11.3 | 0.00 | 0.38 | 0.00 | 79 | 1017.0 |
| 20260507233038 | 15 | 86 | 1.6 | 3.2 | 0.00 | 0.03 | 0.00 | 72 | 1014.0 |
| 20260507232523 | 13 | 103 | 8.0 | 12.9 | 0.00 | 0.38 | 0.00 | 77 | 1016.9 |
| 20260507232034 | 15 | 117 | 0.0 | 3.2 | 0.00 | 0.03 | 0.00 | 71 | 1014.0 |
| 20260507231518 | 13 | 108 | 8.0 | 14.5 | 0.00 | 0.38 | 0.00 | 77 | 1017.2 |
| 20260507231031 | 15 | 85 | 1.6 | 4.8 | 0.00 | 0.03 | 0.00 | 69 | 1014.1 |
| 20260507230534 | 13 | 100 | 8.0 | 14.5 | 0.00 | 0.38 | 0.00 | 77 | 1017.3 |
| 20260507230027 | 15 | 82 | 3.2 | 6.4 | 0.00 | 0.03 | 0.00 | 67 | 1014.4 |
| 20260507225530 | 13 | 99 | 9.7 | 14.5 | 0.00 | 0.38 | 0.00 | 77 | 1017.5 |
| 20260507225023 | 15 | 90 | 3.2 | 6.4 | 0.00 | 0.03 | 0.00 | 66 | 1014.5 |
| 20260507224526 | 13 | 100 | 9.7 | 14.5 | 0.00 | 0.38 | 0.00 | 78 | 1017.5 |
| 20260507224020 | 15 | 113 | 3.2 | 6.4 | 0.00 | 0.03 | 0.00 | 65 | 1014.6 |
| 20260507223522 | 13 | 100 | 8.0 | 14.5 | 0.00 | 0.38 | 0.00 | 78 | 1017.5 |
| 20260507223016 | 15 | 100 | 3.2 | 6.4 | 0.00 | 0.03 | 0.00 | 66 | 1014.5 |
| 20260507222518 | 13 | 101 | 8.0 | 14.5 | 0.00 | 0.38 | 0.00 | 78 | 1017.6 |
| 20260507222033 | 15 | 131 | 1.6 | 4.8 | 0.00 | 0.03 | 0.00 | 67 | 1014.7 |
| 20260507221534 | 12 | 102 | 9.7 | 14.5 | 0.00 | 0.38 | 0.00 | 79 | 1017.6 |
| 20260507221029 | 15 | 133 | 4.8 | 8.0 | 0.00 | 0.03 | 0.00 | 67 | 1014.6 |
| 20260507220530 | 12 | 105 | 8.0 | 14.5 | 0.00 | 0.38 | 0.00 | 80 | 1017.6 |
| 20260507220025 | 15 | 149 | 4.8 | 6.4 | 0.00 | 0.03 | 0.00 | 65 | 1014.7 |
| 20260507215546 | 12 | 94 | 9.7 | 17.7 | 0.00 | 0.38 | 0.38 | 80 | 1017.6 |
| 20260507215022 | 14 | 158 | 4.8 | 8.0 | 0.00 | 0.05 | 0.05 | 65 | 1014.8 |
| 20260507214522 | 12 | 100 | 9.7 | 16.1 | 0.00 | 0.38 | 0.38 | 80 | 1017.8 |
| 20260507214038 | 14 | 138 | 3.2 | 4.8 | 0.00 | 0.05 | 0.05 | 68 | 1014.7 |
| 20260507213518 | 12 | 93 | 8.0 | 12.9 | 0.00 | 0.38 | 0.38 | 81 | 1017.7 |
| 20260507213055 | 14 | 137 | 4.8 | 6.4 | 0.00 | 0.08 | 0.05 | 69 | 1014.9 |
| 20260507212534 | 12 | 110 | 8.0 | 14.5 | 0.00 | 0.38 | 0.38 | 82 | 1017.8 |
| 20260507212031 | 14 | 127 | 4.8 | 6.4 | 0.00 | 0.08 | 0.05 | 70 | 1014.8 |
| 20260507211530 | 11 | 112 | 4.8 | 11.3 | 0.00 | 0.38 | 0.38 | 84 | 1017.9 |
| 20260507211027 | 13 | 142 | 4.8 | 6.4 | 0.00 | 0.10 | 0.05 | 72 | 1014.9 |
| 20260507210525 | 11 | 63 | 3.2 | 8.0 | 0.00 | 0.38 | 0.38 | 84 | 1017.9 |
| 20260507210026 | 14 | 140 | 1.6 | 3.2 | 0.00 | 0.10 | 0.05 | 71 | 1015.0 |
| 20260507205521 | 11 | 64 | 3.2 | 11.3 | 0.00 | 0.38 | 0.38 | 86 | 1017.8 |
| 20260507205100 | 14 | 135 | 3.2 | 4.8 | 0.00 | 0.10 | 0.05 | 71 | 1014.9 |
| 20260507204537 | 11 | 85 | 4.8 | 11.3 | 0.00 | 0.38 | 0.38 | 85 | 1017.8 |
| 20260507204017 | 14 | 130 | 4.8 | 6.4 | 0.00 | 0.13 | 0.05 | 72 | 1014.9 |
| 20260507203533 | 11 | 59 | 3.2 | 6.4 | 0.00 | 0.38 | 0.38 | 85 | 1017.9 |
| 20260507203053 | 13 | 136 | 4.8 | 6.4 | 0.00 | 0.15 | 0.05 | 74 | 1015.0 |
| 20260507202530 | 11 | 60 | 3.2 | 6.4 | 0.00 | 0.38 | 0.38 | 85 | 1018.1 |
| 20260507202029 | 13 | 144 | 3.2 | 6.4 | 0.00 | 0.15 | 0.05 | 74 | 1015.2 |
| 20260507201525 | 11 | 47 | 3.2 | 8.0 | 0.00 | 0.38 | 0.38 | 85 | 1018.1 |
| 20260507201106 | 14 | 140 | 4.8 | 6.4 | 0.00 | 0.18 | 0.05 | 73 | 1015.2 |
| 20260507200521 | 11 | 46 | 3.2 | 8.0 | 0.00 | 0.38 | 0.38 | 84 | 1018.1 |
| 20260507200022 | 14 | 130 | 4.8 | 6.4 | 0.00 | 0.18 | 0.05 | 74 | 1015.3 |
| 20260507195517 | 11 | 43 | 3.2 | 6.4 | 0.00 | 0.38 | 0.38 | 83 | 1018.1 |
| 20260507195018 | 14 | 124 | 4.8 | 6.4 | 0.00 | 0.18 | 0.05 | 73 | 1015.3 |
| 20260507194553 | 11 | 41 | 3.2 | 6.4 | 0.00 | 0.38 | 0.38 | 85 | 1018.1 |
| 20260507194035 | 15 | 65 | 0.0 | 3.2 | 0.00 | 0.18 | 0.05 | 70 | 1015.2 |
| 20260507193529 | 11 | 46 | 3.2 | 9.7 | 0.00 | 0.38 | 0.38 | 85 | 1018.0 |
| 20260507193031 | 14 | 79 | 1.6 | 3.2 | 0.00 | 0.18 | 0.05 | 73 | 1015.3 |
| 20260507192525 | 11 | 37 | 3.2 | 6.4 | 0.00 | 0.38 | 0.38 | 85 | 1018.0 |
| 20260507192028 | 15 | 94 | 1.6 | 4.8 | 0.00 | 0.18 | 0.05 | 73 | 1015.1 |
| 20260507191521 | 11 | 15 | 3.2 | 6.4 | 0.00 | 0.38 | 0.38 | 85 | 1018.1 |
| 20260507191024 | 14 | 39 | 1.6 | 4.8 | 0.00 | 0.18 | 0.05 | 76 | 1015.1 |
| 20260507190517 | 11 | 352 | 3.2 | 4.8 | 0.00 | 0.38 | 0.38 | 84 | 1018.0 |
| 20260507190020 | 14 | 90 | 1.6 | 3.2 | 0.00 | 0.18 | 0.05 | 78 | 1015.0 |
| 20260507185533 | 12 | 332 | 3.2 | 6.4 | 0.00 | 0.38 | 0.38 | 83 | 1018.1 |
| 20260507185016 | 14 | 73 | 1.6 | 3.2 | 0.00 | 0.18 | 0.05 | 80 | 1015.0 |
| 20260507184529 | 12 | 6 | 1.6 | 6.4 | 0.00 | 0.38 | 0.38 | 82 | 1018.1 |
| 20260507184033 | 15 | 111 | 1.6 | 3.2 | 0.00 | 0.18 | 0.05 | 79 | 1015.1 |
| 20260507183525 | 12 | 324 | 3.2 | 6.4 | 0.00 | 0.38 | 0.38 | 83 | 1018.0 |
| 20260507183029 | 15 | 114 | 0.0 | 3.2 | 0.00 | 0.18 | 0.05 | 79 | 1015.1 |
| 20260507182521 | 12 | 317 | 3.2 | 8.0 | 0.00 | 0.38 | 0.38 | 82 | 1018.1 |
| 20260507182026 | 15 | 126 | 0.0 | 3.2 | 0.00 | 0.18 | 0.05 | 80 | 1015.0 |
| 20260507181517 | 12 | 35 | 1.6 | 6.4 | 0.00 | 0.38 | 0.38 | 84 | 1018.2 |
| 20260507181042 | 15 | 86 | 1.6 | 3.2 | 0.00 | 0.18 | 0.05 | 78 | 1015.0 |
| 20260507180533 | 12 | 121 | 1.6 | 6.4 | 0.00 | 0.38 | 0.38 | 83 | 1018.2 |
| 20260507180019 | 15 | 101 | 1.6 | 3.2 | 0.00 | 0.18 | 0.05 | 76 | 1015.1 |
| 20260507175529 | 12 | 158 | 1.6 | 6.4 | 0.00 | 0.38 | 0.38 | 83 | 1018.2 |
| 20260507175055 | 16 | 0.0 | 1.6 | 0.00 | 0.18 | 0.05 | 73 | 1015.1 | |
| 20260507174525 | 12 | 133 | 3.2 | 6.4 | 0.00 | 0.41 | 0.38 | 81 | 1018.4 |
| 20260507174052 | 16 | 82 | 0.0 | 3.2 | 0.00 | 0.18 | 0.05 | 70 | 1015.2 |
| 20260507173521 | 12 | 141 | 3.2 | 6.4 | 0.00 | 0.41 | 0.38 | 79 | 1018.3 |
| 20260507173028 | 16 | 114 | 1.6 | 3.2 | 0.00 | 0.18 | 0.05 | 71 | 1015.2 |
| 20260507172517 | 13 | 157 | 3.2 | 8.0 | 0.00 | 0.43 | 0.38 | 79 | 1018.2 |
| 20260507172024 | 16 | 98 | 0.0 | 3.2 | 0.00 | 0.18 | 0.05 | 70 | 1015.2 |
| 20260507171533 | 13 | 152 | 3.2 | 8.0 | 0.00 | 0.43 | 0.38 | 79 | 1018.2 |
| 20260507171021 | 16 | 50 | 0.0 | 3.2 | 0.00 | 0.18 | 0.05 | 69 | 1015.1 |
| 20260507170529 | 13 | 186 | 3.2 | 9.7 | 0.00 | 0.43 | 0.38 | 78 | 1018.2 |
| 20260507170017 | 17 | 128 | 0.0 | 3.2 | 0.00 | 0.18 | 0.05 | 68 | 1015.0 |
| 20260507165525 | 13 | 161 | 3.2 | 12.9 | 0.00 | 0.43 | 0.38 | 78 | 1018.2 |
| 20260507165053 | 17 | 98 | 0.0 | 3.2 | 0.00 | 0.18 | 0.05 | 68 | 1015.1 |
| 20260507164521 | 14 | 165 | 4.8 | 11.3 | 0.00 | 0.43 | 0.38 | 77 | 1018.1 |
| 20260507164030 | 17 | 40 | 0.0 | 3.2 | 0.00 | 0.18 | 0.05 | 68 | 1015.0 |
| 20260507163517 | 15 | 177 | 3.2 | 8.0 | 0.00 | 0.43 | 0.38 | 78 | 1018.1 |
| 20260507163026 | 17 | 61 | 1.6 | 3.2 | 0.00 | 0.18 | 0.05 | 70 | 1015.0 |
| 20260507162533 | 15 | 189 | 3.2 | 11.3 | 0.00 | 0.43 | 0.38 | 76 | 1018.2 |
| 20260507162042 | 17 | 357 | 1.6 | 3.2 | 0.00 | 0.18 | 0.05 | 68 | 1015.1 |
| 20260507161529 | 15 | 167 | 3.2 | 9.7 | 0.00 | 0.43 | 0.38 | 76 | 1018.1 |
| 20260507161019 | 17 | 8 | 1.6 | 3.2 | 0.00 | 0.18 | 0.05 | 69 | 1015.1 |
| 20260507160525 | 15 | 217 | 1.6 | 8.0 | 0.00 | 0.43 | 0.38 | 77 | 1018.1 |
| 20260507160035 | 17 | 357 | 0.0 | 4.8 | 0.00 | 0.18 | 0.05 | 69 | 1015.3 |
| 20260507155521 | 15 | 201 | 4.8 | 14.5 | 0.00 | 0.43 | 0.38 | 78 | 1018.1 |
| 20260507155032 | 17 | 42 | 0.0 | 3.2 | 0.00 | 0.18 | 0.05 | 69 | 1015.1 |
| 20260507154517 | 15 | 182 | 1.6 | 6.4 | 0.00 | 0.43 | 0.38 | 79 | 1018.1 |
| 20260507154028 | 17 | 338 | 1.6 | 3.2 | 0.00 | 0.18 | 0.05 | 69 | 1015.2 |
| 20260507153533 | 15 | 216 | 3.2 | 8.0 | 0.00 | 0.43 | 0.38 | 77 | 1018.1 |
| 20260507153025 | 17 | 9 | 0.0 | 3.2 | 0.00 | 0.18 | 0.05 | 68 | 1015.2 |
| 20260507152529 | 15 | 129 | 3.2 | 9.7 | 0.00 | 0.43 | 0.38 | 77 | 1018.1 |
| 20260507152021 | 18 | 340 | 1.6 | 4.8 | 0.00 | 0.18 | 0.05 | 65 | 1015.2 |
| 20260507151546 | 15 | 180 | 3.2 | 8.0 | 0.00 | 0.43 | 0.38 | 79 | 1018.3 |
| 20260507151017 | 18 | 344 | 1.6 | 3.2 | 0.00 | 0.18 | 0.05 | 67 | 1015.3 |
| 20260507150541 | 15 | 170 | 4.8 | 11.3 | 0.00 | 0.43 | 0.38 | 79 | 1018.2 |
| 20260507150034 | 18 | 336 | 1.6 | 3.2 | 0.00 | 0.18 | 0.05 | 66 | 1015.3 |
| 20260507145517 | 15 | 106 | 3.2 | 6.4 | 0.00 | 0.43 | 0.38 | 77 | 1018.3 |
| 20260507145030 | 18 | 323 | 1.6 | 6.4 | 0.00 | 0.18 | 0.05 | 66 | 1015.1 |
| 20260507144554 | 16 | 134 | 6.4 | 11.3 | 0.00 | 0.43 | 0.38 | 78 | 1018.2 |
| 20260507144026 | 19 | 341 | 0.0 | 4.8 | 0.00 | 0.18 | 0.05 | 67 | 1015.2 |
| 20260507143530 | 16 | 236 | 1.6 | 6.4 | 0.00 | 0.43 | 0.38 | 74 | 1018.3 |
| 20260507143023 | 18 | 61 | 0.0 | 3.2 | 0.00 | 0.18 | 0.05 | 69 | 1015.3 |
| 20260507142526 | 16 | 132 | 4.8 | 11.3 | 0.00 | 0.43 | 0.38 | 76 | 1018.5 |
| 20260507142019 | 18 | 40 | 1.6 | 4.8 | 0.00 | 0.18 | 0.05 | 69 | 1015.4 |
| 20260507141522 | 15 | 356 | 3.2 | 6.4 | 0.00 | 0.43 | 0.38 | 76 | 1018.6 |
| 20260507141015 | 18 | 50 | 1.6 | 3.2 | 0.00 | 0.18 | 0.05 | 70 | 1015.7 |
| 20260507140518 | 15 | 107 | 4.8 | 12.9 | 0.00 | 0.43 | 0.38 | 78 | 1018.8 |
| 20260507140032 | 18 | 1 | 1.6 | 3.2 | 0.00 | 0.18 | 0.05 | 69 | 1015.7 |
| 20260507135535 | 15 | 22 | 3.2 | 8.0 | 0.00 | 0.43 | 0.38 | 79 | 1019.0 |
| 20260507135028 | 17 | 68 | 1.6 | 3.2 | 0.00 | 0.18 | 0.05 | 71 | 1016.0 |
| 20260507134611 | 15 | 146 | 3.2 | 9.7 | 0.00 | 0.43 | 0.38 | 79 | 1019.1 |
| 20260507134045 | 18 | 329 | 1.6 | 3.2 | 0.00 | 0.18 | 0.05 | 70 | 1016.2 |
| 20260507133527 | 15 | 93 | 3.2 | 9.7 | 0.00 | 0.43 | 0.38 | 78 | 1019.1 |
| 20260507133021 | 18 | 4 | 1.6 | 4.8 | 0.00 | 0.18 | 0.05 | 68 | 1016.1 |
| 20260507132523 | 15 | 115 | 4.8 | 9.7 | 0.00 | 0.43 | 0.38 | 79 | 1019.3 |
| 20260507132017 | 18 | 356 | 1.6 | 6.4 | 0.00 | 0.18 | 0.05 | 70 | 1016.2 |
| 20260507131539 | 15 | 136 | 4.8 | 14.5 | 0.00 | 0.43 | 0.38 | 78 | 1019.3 |
| 20260507131034 | 18 | 355 | 3.2 | 6.4 | 0.00 | 0.18 | 0.05 | 74 | 1016.2 |
| 20260507130516 | 15 | 155 | 4.8 | 14.5 | 0.00 | 0.43 | 0.38 | 79 | 1019.2 |
| 20260507130030 | 18 | 328 | 0.0 | 4.8 | 0.00 | 0.18 | 0.05 | 72 | 1016.3 |
| 20260507125532 | 14 | 148 | 3.2 | 12.9 | 0.00 | 0.43 | 0.38 | 81 | 1019.2 |
| 20260507125026 | 17 | 345 | 1.6 | 4.8 | 0.00 | 0.18 | 0.05 | 75 | 1016.3 |
| 20260507124528 | 14 | 104 | 3.2 | 8.0 | 0.00 | 0.43 | 0.38 | 84 | 1019.3 |
| 20260507124023 | 17 | 344 | 3.2 | 6.4 | 0.00 | 0.18 | 0.05 | 72 | 1016.4 |
| 20260507123544 | 14 | 105 | 3.2 | 9.7 | 0.00 | 0.43 | 0.38 | 85 | 1019.4 |
| 20260507123019 | 17 | 55 | 1.6 | 3.2 | 0.00 | 0.18 | 0.05 | 75 | 1016.5 |
| 20260507122540 | 13 | 101 | 3.2 | 9.7 | 0.00 | 0.43 | 0.38 | 87 | 1019.6 |
| 20260507122056 | 17 | 325 | 1.6 | 6.4 | 0.00 | 0.18 | 0.05 | 76 | 1016.6 |
| 20260507121516 | 13 | 104 | 3.2 | 8.0 | 0.00 | 0.43 | 0.38 | 88 | 1019.4 |
| 20260507121032 | 17 | 321 | 0.0 | 3.2 | 0.00 | 0.18 | 0.05 | 76 | 1016.6 |
| 20260507120532 | 13 | 114 | 4.8 | 9.7 | 0.00 | 0.43 | 0.38 | 86 | 1019.5 |
| 20260507120028 | 17 | 18 | 1.6 | 4.8 | 0.00 | 0.18 | 0.05 | 74 | 1016.6 |
| 20260507115529 | 13 | 106 | 3.2 | 8.0 | 0.00 | 0.43 | 0.38 | 86 | 1019.6 |
| 20260507115045 | 17 | 356 | 1.6 | 3.2 | 0.00 | 0.18 | 0.05 | 76 | 1016.7 |
| 20260507114545 | 14 | 114 | 4.8 | 11.3 | 0.00 | 0.43 | 0.38 | 84 | 1019.6 |
| 20260507114021 | 17 | 356 | 1.6 | 3.2 | 0.00 | 0.18 | 0.05 | 75 | 1016.7 |
| 20260507113521 | 14 | 90 | 3.2 | 8.0 | 0.00 | 0.43 | 0.38 | 84 | 1019.6 |
| 20260507113018 | 17 | 19 | 1.6 | 8.0 | 0.00 | 0.18 | 0.05 | 76 | 1016.8 |
| 20260507112517 | 13 | 106 | 4.8 | 9.7 | 0.00 | 0.43 | 0.38 | 88 | 1019.7 |
| 20260507112034 | 18 | 354 | 1.6 | 3.2 | 0.00 | 0.18 | 0.05 | 73 | 1016.7 |
| 20260507111534 | 13 | 58 | 3.2 | 8.0 | 0.00 | 0.43 | 0.38 | 91 | 1019.5 |
| 20260507111030 | 17 | 356 | 1.6 | 6.4 | 0.00 | 0.18 | 0.05 | 74 | 1016.8 |
| 20260507110530 | 13 | 33 | 1.6 | 6.4 | 0.00 | 0.43 | 0.38 | 87 | 1019.6 |
| 20260507110026 | 17 | 25 | 1.6 | 4.8 | 0.00 | 0.18 | 0.05 | 74 | 1016.7 |
| 20260507105526 | 13 | 146 | 3.2 | 9.7 | 0.00 | 0.43 | 0.38 | 84 | 1019.6 |
| 20260507105023 | 16 | 1 | 1.6 | 4.8 | 0.00 | 0.18 | 0.05 | 76 | 1016.8 |
| 20260507104522 | 13 | 59 | 1.6 | 8.0 | 0.00 | 0.43 | 0.38 | 91 | 1019.6 |
| 20260507104100 | 16 | 352 | 1.6 | 4.8 | 0.00 | 0.18 | 0.05 | 77 | 1016.9 |
| 20260507103519 | 13 | 88 | 3.2 | 8.0 | 0.00 | 0.43 | 0.38 | 93 | 1019.8 |
| 20260507103016 | 17 | 35 | 1.6 | 6.4 | 0.00 | 0.18 | 0.05 | 75 | 1016.8 |
| 20260507102535 | 12 | 127 | 4.8 | 12.9 | 0.00 | 0.43 | 0.38 | 94 | 1019.8 |
| 20260507102032 | 16 | 32 | 1.6 | 4.8 | 0.00 | 0.18 | 0.05 | 77 | 1016.9 |
| 20260507101532 | 12 | 122 | 4.8 | 9.7 | 0.00 | 0.43 | 0.38 | 94 | 1019.8 |
| 20260507101028 | 16 | 15 | 1.6 | 6.4 | 0.00 | 0.18 | 0.05 | 78 | 1017.0 |
| 20260507100528 | 13 | 112 | 6.4 | 14.5 | 0.00 | 0.43 | 0.38 | 93 | 1019.7 |
| 20260507100025 | 15 | 350 | 1.6 | 3.2 | 0.00 | 0.18 | 0.05 | 80 | 1016.9 |
| 20260507095524 | 13 | 103 | 4.8 | 9.7 | 0.00 | 0.43 | 0.38 | 92 | 1019.5 |
| 20260507095021 | 15 | 17 | 1.6 | 6.4 | 0.00 | 0.18 | 0.05 | 80 | 1016.9 |
| 20260507094520 | 13 | 342 | 3.2 | 6.4 | 0.00 | 0.43 | 0.38 | 90 | 1019.6 |
| 20260507094018 | 15 | 355 | 3.2 | 6.4 | 0.00 | 0.18 | 0.05 | 80 | 1017.0 |
| 20260507093516 | 12 | 121 | 4.8 | 12.9 | 0.00 | 0.43 | 0.38 | 91 | 1019.6 |
| 20260507093034 | 15 | 10 | 1.6 | 8.0 | 0.00 | 0.18 | 0.05 | 78 | 1016.9 |
| 20260507092533 | 13 | 119 | 4.8 | 12.9 | 0.00 | 0.43 | 0.38 | 85 | 1019.4 |
| 20260507092050 | 15 | 0 | 1.6 | 8.0 | 0.00 | 0.18 | 0.05 | 80 | 1016.6 |
| 20260507091529 | 12 | 64 | 3.2 | 9.7 | 0.00 | 0.43 | 0.38 | 87 | 1019.2 |
| 20260507091027 | 15 | 37 | 3.2 | 6.4 | 0.00 | 0.18 | 0.05 | 78 | 1016.7 |
| 20260507090525 | 12 | 108 | 4.8 | 9.7 | 0.00 | 0.43 | 0.38 | 90 | 1019.1 |
| 20260507090023 | 15 | 38 | 3.2 | 6.4 | 0.00 | 0.18 | 0.05 | 82 | 1016.8 |
| 20260507085521 | 12 | 69 | 3.2 | 8.0 | 0.00 | 0.43 | 0.38 | 92 | 1019.1 |
| 20260507085019 | 15 | 33 | 1.6 | 4.8 | 0.00 | 0.18 | 0.05 | 83 | 1016.8 |
| 20260507084518 | 12 | 73 | 3.2 | 8.0 | 0.00 | 0.43 | 0.38 | 92 | 1019.2 |
| 20260507084016 | 14 | 2 | 1.6 | 8.0 | 0.00 | 0.18 | 0.05 | 84 | 1016.9 |
| 20260507083534 | 11 | 115 | 3.2 | 8.0 | 0.00 | 0.43 | 0.38 | 92 | 1019.2 |
| 20260507083053 | 15 | 32 | 1.6 | 4.8 | 0.00 | 0.18 | 0.05 | 83 | 1016.8 |
| 20260507082530 | 11 | 95 | 3.2 | 8.0 | 0.00 | 0.43 | 0.38 | 96 | 1019.3 |
| 20260507082028 | 15 | 26 | 1.6 | 6.4 | 0.00 | 0.18 | 0.05 | 84 | 1016.7 |
| 20260507081527 | 10 | 103 | 3.2 | 8.0 | 0.00 | 0.43 | 0.38 | 99 | 1019.2 |
| 20260507081025 | 14 | 32 | 1.6 | 6.4 | 0.00 | 0.18 | 0.05 | 84 | 1016.8 |
| 20260507080523 | 10 | 125 | 4.8 | 11.3 | 0.00 | 0.43 | 0.38 | 98 | 1019.3 |
| 20260507080022 | 13 | 13 | 1.6 | 6.4 | 0.00 | 0.18 | 0.05 | 85 | 1016.7 |
| 20260507075519 | 10 | 97 | 4.8 | 9.7 | 0.00 | 0.43 | 0.38 | 99 | 1019.2 |
| 20260507075018 | 13 | 353 | 1.6 | 4.8 | 0.00 | 0.18 | 0.05 | 85 | 1016.8 |
| 20260507074535 | 10 | 69 | 3.2 | 8.0 | 0.00 | 0.43 | 0.38 | 99 | 1019.1 |
| 20260507074034 | 13 | 27 | 1.6 | 3.2 | 0.00 | 0.18 | 0.05 | 88 | 1016.8 |
| 20260507073531 | 10 | 103 | 3.2 | 6.4 | 0.00 | 0.43 | 0.38 | 99 | 1019.1 |
| 20260507073031 | 13 | 12 | 1.6 | 4.8 | 0.00 | 0.18 | 0.05 | 86 | 1016.9 |
| 20260507072528 | 10 | 96 | 1.6 | 6.4 | 0.00 | 0.43 | 0.38 | 99 | 1019.2 |
| 20260507072026 | 13 | 20 | 1.6 | 3.2 | 0.00 | 0.18 | 0.05 | 88 | 1016.8 |
| 20260507071524 | 10 | 359 | 1.6 | 4.8 | 0.00 | 0.43 | 0.38 | 99 | 1019.2 |
| 20260507071023 | 13 | 14 | 1.6 | 4.8 | 0.00 | 0.18 | 0.05 | 87 | 1016.7 |
| 20260507070521 | 10 | 111 | 1.6 | 6.4 | 0.00 | 0.43 | 0.38 | 99 | 1019.0 |
| 20260507070019 | 15 | 30 | 1.6 | 3.2 | 0.00 | 0.18 | 0.05 | 80 | 1016.6 |
| 20260507065517 | 10 | 326 | 1.6 | 6.4 | 0.00 | 0.43 | 0.38 | 99 | 1018.7 |
| 20260507065035 | 14 | 99 | 1.6 | 9.7 | 0.00 | 0.18 | 0.05 | 77 | 1016.4 |
| 20260507064533 | 10 | 58 | 1.6 | 4.8 | 0.00 | 0.43 | 0.38 | 99 | 1018.7 |
| 20260507064032 | 13 | 98 | 3.2 | 6.4 | 0.00 | 0.18 | 0.05 | 81 | 1016.4 |
| 20260507063529 | 10 | 74 | 3.2 | 8.0 | 0.00 | 0.43 | 0.38 | 99 | 1018.4 |
| 20260507063028 | 13 | 91 | 3.2 | 4.8 | 0.00 | 0.18 | 0.05 | 84 | 1016.3 |
| 20260507062525 | 10 | 91 | 3.2 | 8.0 | 0.00 | 0.43 | 0.38 | 99 | 1018.5 |
| 20260507062024 | 13 | 68 | 1.6 | 6.4 | 0.00 | 0.20 | 0.05 | 86 | 1016.2 |
| 20260507061521 | 10 | 40 | 3.2 | 4.8 | 0.00 | 0.43 | 0.38 | 99 | 1018.2 |
| 20260507061021 | 11 | 73 | 4.8 | 6.4 | 0.00 | 0.23 | 0.05 | 90 | 1016.2 |
| 20260507060537 | 9 | 83 | 3.2 | 9.7 | 0.00 | 0.43 | 0.38 | 99 | 1018.3 |
| 20260507060017 | 11 | 95 | 3.2 | 6.4 | 0.00 | 0.25 | 0.05 | 92 | 1016.4 |
| 20260507055533 | 8 | 91 | 3.2 | 8.0 | 0.00 | 0.46 | 0.38 | 99 | 1018.3 |
| 20260507055034 | 11 | 116 | 3.2 | 6.4 | 0.00 | 0.28 | 0.05 | 94 | 1016.4 |
| 20260507054529 | 8 | 80 | 3.2 | 6.4 | 0.00 | 0.48 | 0.38 | 99 | 1018.3 |
| 20260507054030 | 11 | 113 | 3.2 | 6.4 | 0.00 | 0.30 | 0.05 | 94 | 1016.4 |
| 20260507053525 | 8 | 103 | 1.6 | 4.8 | 0.00 | 0.48 | 0.38 | 99 | 1018.4 |
| 20260507053026 | 10 | 85 | 4.8 | 6.4 | 0.00 | 0.33 | 0.05 | 95 | 1016.4 |
| 20260507052522 | 8 | 344 | 0.0 | 4.8 | 0.03 | 0.51 | 0.38 | 99 | 1018.3 |
| 20260507052023 | 10 | 110 | 3.2 | 4.8 | 0.00 | 0.33 | 0.05 | 95 | 1016.4 |
| 20260507051518 | 8 | 159 | 0.0 | 3.2 | 0.05 | 0.53 | 0.38 | 99 | 1018.2 |
| 20260507051019 | 10 | 111 | 3.2 | 4.8 | 0.00 | 0.33 | 0.05 | 95 | 1016.3 |
| 20260507050534 | 8 | 79 | 1.6 | 3.2 | 0.05 | 0.53 | 0.36 | 99 | 1018.2 |
| 20260507050016 | 10 | 114 | 3.2 | 6.4 | 0.00 | 0.30 | 0.03 | 95 | 1016.2 |
| 20260507045551 | 8 | 96 | 1.6 | 4.8 | 0.05 | 0.56 | 0.36 | 99 | 1018.1 |
| 20260507045032 | 9 | 136 | 4.8 | 8.0 | 0.00 | 0.30 | 0.03 | 95 | 1016.1 |
| 20260507044548 | 8 | 91 | 1.6 | 3.2 | 0.05 | 0.56 | 0.36 | 99 | 1018.0 |
| 20260507044109 | 9 | 143 | 4.8 | 6.4 | 0.00 | 0.30 | 0.03 | 95 | 1016.1 |
| 20260507043544 | 8 | 96 | 1.6 | 3.2 | 0.05 | 0.56 | 0.36 | 99 | 1018.0 |
| 20260507043025 | 9 | 117 | 3.2 | 6.4 | 0.00 | 0.30 | 0.03 | 95 | 1016.1 |
| 20260507042540 | 8 | 85 | 1.6 | 4.8 | 0.05 | 0.53 | 0.36 | 99 | 1018.1 |
| 20260507042021 | 9 | 100 | 1.6 | 4.8 | 0.00 | 0.30 | 0.03 | 94 | 1016.1 |
| 20260507041516 | 8 | 115 | 1.6 | 4.8 | 0.03 | 0.51 | 0.33 | 99 | 1018.0 |
| 20260507041038 | 10 | 68 | 1.6 | 4.8 | 0.00 | 0.30 | 0.03 | 93 | 1016.0 |
| 20260507040532 | 8 | 102 | 1.6 | 4.8 | 0.03 | 0.51 | 0.30 | 99 | 1017.9 |
| 20260507040034 | 9 | 51 | 3.2 | 4.8 | 0.00 | 0.30 | 0.03 | 93 | 1015.9 |
| 20260507035529 | 8 | 101 | 1.6 | 3.2 | 0.05 | 0.51 | 0.30 | 99 | 1017.8 |
| 20260507035030 | 9 | 65 | 3.2 | 4.8 | 0.00 | 0.30 | 0.03 | 94 | 1015.8 |
| 20260507034525 | 7 | 92 | 3.2 | 4.8 | 0.05 | 0.51 | 0.30 | 99 | 1017.7 |
| 20260507034027 | 9 | 84 | 3.2 | 4.8 | 0.00 | 0.30 | 0.03 | 95 | 1015.8 |
| 20260507033521 | 7 | 73 | 1.6 | 3.2 | 0.08 | 0.48 | 0.30 | 99 | 1017.7 |
| 20260507033023 | 9 | 106 | 4.8 | 8.0 | 0.00 | 0.30 | 0.03 | 95 | 1015.8 |
| 20260507032517 | 8 | 105 | 3.2 | 6.4 | 0.10 | 0.48 | 0.30 | 99 | 1017.8 |
| 20260507032020 | 9 | 109 | 3.2 | 6.4 | 0.00 | 0.30 | 0.03 | 96 | 1015.8 |
| 20260507031534 | 8 | 100 | 3.2 | 6.4 | 0.10 | 0.48 | 0.30 | 99 | 1017.7 |
| 20260507031036 | 9 | 73 | 3.2 | 4.8 | 0.00 | 0.30 | 0.03 | 96 | 1015.9 |
| 20260507030530 | 8 | 107 | 4.8 | 6.4 | 0.13 | 0.48 | 0.28 | 99 | 1017.8 |
| 20260507030033 | 9 | 124 | 3.2 | 6.4 | 0.00 | 0.30 | 0.03 | 96 | 1015.8 |
| 20260507025526 | 8 | 110 | 4.8 | 9.7 | 0.13 | 0.46 | 0.28 | 99 | 1017.7 |
| 20260507025029 | 9 | 150 | 4.8 | 6.4 | 0.00 | 0.30 | 0.03 | 95 | 1015.7 |
| 20260507024522 | 8 | 97 | 3.2 | 6.4 | 0.13 | 0.43 | 0.25 | 99 | 1017.9 |
| 20260507024026 | 9 | 134 | 4.8 | 9.7 | 0.00 | 0.30 | 0.03 | 94 | 1015.9 |
| 20260507023519 | 7 | 103 | 3.2 | 6.4 | 0.13 | 0.41 | 0.23 | 99 | 1017.7 |
| 20260507023042 | 9 | 8 | 3.2 | 6.4 | 0.00 | 0.30 | 0.03 | 94 | 1015.9 |
| 20260507022535 | 7 | 94 | 3.2 | 4.8 | 0.13 | 0.41 | 0.20 | 99 | 1017.6 |
| 20260507022018 | 9 | 347 | 1.6 | 6.4 | 0.00 | 0.30 | 0.03 | 94 | 1015.7 |
| 20260507021531 | 7 | 93 | 3.2 | 4.8 | 0.13 | 0.46 | 0.18 | 99 | 1017.7 |
| 20260507021034 | 9 | 120 | 3.2 | 6.4 | 0.00 | 0.30 | 0.03 | 95 | 1015.8 |
| 20260507020527 | 7 | 115 | 4.8 | 6.4 | 0.10 | 0.46 | 0.18 | 99 | 1017.7 |
| 20260507020031 | 9 | 14 | 3.2 | 6.4 | 0.00 | 0.30 | 0.03 | 93 | 1015.8 |
| 20260507015523 | 7 | 110 | 3.2 | 6.4 | 0.08 | 0.43 | 0.15 | 99 | 1017.8 |
| 20260507015047 | 9 | 95 | 3.2 | 6.4 | 0.00 | 0.30 | 0.03 | 95 | 1015.7 |
| 20260507014520 | 7 | 105 | 3.2 | 4.8 | 0.08 | 0.41 | 0.13 | 99 | 1017.6 |
| 20260507014023 | 9 | 56 | 3.2 | 6.4 | 0.00 | 0.30 | 0.03 | 96 | 1015.9 |
| 20260507013537 | 7 | 111 | 3.2 | 4.8 | 0.05 | 0.38 | 0.10 | 99 | 1017.6 |
| 20260507013020 | 9 | 138 | 3.2 | 8.0 | 0.00 | 0.30 | 0.03 | 96 | 1015.8 |
| 20260507012533 | 7 | 113 | 1.6 | 6.4 | 0.05 | 0.38 | 0.08 | 99 | 1017.7 |
| 20260507012036 | 9 | 131 | 3.2 | 6.4 | 0.00 | 0.33 | 0.03 | 95 | 1015.8 |